sat.trackr.live / text

‹ back to catalog

STARLINK-34169

NORAD 63999 · 2025-101F

PAYLOAD ACTIVE UNKNOWN

§ Identity

Operator
Country
US
Launch date
2025-05-14
Launch site
AFETR
Launch vehicle
Mass (kg)
RCS (m²)

Purposes: comms

External: N2YO · Heavens-Above · Gunter

§ Orbital elements

Epoch: 2026-05-25T02:28:16.406688Z

Period
94.27 min
Inclination
43.0030°
Eccentricity
0.0000669
Mean motion
15.27584744 rev/d
Perigee alt
482.6 km
Apogee alt
483.5 km
Semi-major
6,861.2 km
B*
5.2725e-4
RAAN
286.2494°
Arg perigee
264.0473°
Mean anomaly
96.0302°
Rev number
5,874

§ Raw data

STARLINK-341691 63999U 25101F   26145.10296767  .00014277  00000+0  52725-3 0  99952 63999  43.0030 286.2494 0000669 264.0473  96.0302 15.27584744 58741

JSON: /api/v1/satellites/63999 · /tle

For live sub-satellite position, see the globe view (requires WebGL).

§ Visibility from observer

Set your observer location to see the next 7 days of passes ≥ 10°. The values pass through the URL so the page stays shareable.

No JS? Fill the form by hand. The geolocation button needs JavaScript.